When you browse on this site, cookies collect data to enhance your experience and personalize the content and advertising you see.
Visit our Privacy Policy to learn more. By continuing to use the site, you agree to this use of cookies and data.
  • In Portugal
  • List of Countries
  • For 7 days
  • Water Temperature
  • Satellite Maps
  • Weather Map
  • Weather Widgets
  • user-avatar
    Login

    Hourly Weather Aleksandria

    Today, 22 March, Friday

    Time Temperature Precipitation Wind Pressure Humidity
    00:00 +14°C° 0 mm 3 mps 763 mmHg 82%
    01:00 +15°C° 0 mm 2 mps 763 mmHg 83%
    02:00 +15°C° 0 mm 2 mps 763 mmHg 83%
    03:00 +15°C° 0 mm 2 mps 762 mmHg 83%
    04:00 +15°C° 0 mm 2 mps 762 mmHg 83%
    05:00 +14°C° 0 mm 2 mps 762 mmHg 83%
    06:00 +15°C° 0 mm 2 mps 762 mmHg 78%
    07:00 +16°C° 0 mm 2 mps 763 mmHg 73%
    08:00 +17°C° 0 mm 2 mps 763 mmHg 67%
    09:00 +19°C° 0 mm 3 mps 763 mmHg 57%
    10:00 +21°C° 0 mm 3 mps 763 mmHg 46%
    11:00 +24°C° 0 mm 3 mps 763 mmHg 36%
    12:00 +25°C° 0 mm 4 mps 762 mmHg 35%
    13:00 +25°C° 0 mm 4 mps 762 mmHg 35%
    14:00 +26°C° 0 mm 5 mps 762 mmHg 34%
    15:00 +25°C° 0 mm 5 mps 761 mmHg 38%
    16:00 +22°C° 0 mm 5 mps 761 mmHg 42%
    17:00 +21°C° 0 mm 6 mps 761 mmHg 46%
    18:00 +20°C° 0 mm 5 mps 761 mmHg 54%
    19:00 +19°C° 0 mm 5 mps 762 mmHg 62%
    20:00 +18°C° 0 mm 4 mps 762 mmHg 70%
    21:00 +17°C° 0 mm 4 mps 762 mmHg 71%
    22:00 +17°C° 0 mm 3 mps 762 mmHg 72%
    23:00 +17°C° 0 mm 3 mps 762 mmHg 73%

    Tomorrow, 23 March, Saturday

    Time Temperature Precipitation Wind Pressure Humidity
    00:00 +17°C° 0 mm 3 mps 761 mmHg 72%
    01:00 +17°C° 0 mm 3 mps 761 mmHg 71%
    02:00 +17°C° 0 mm 3 mps 761 mmHg 70%
    03:00 +16°C° 0 mm 3 mps 760 mmHg 69%
    04:00 +15°C° 0 mm 4 mps 760 mmHg 69%
    05:00 +15°C° 0 mm 4 mps 760 mmHg 68%
    06:00 +17°C° 0 mm 4 mps 760 mmHg 65%
    07:00 +18°C° 0 mm 3 mps 760 mmHg 63%
    08:00 +18°C° 0 mm 3 mps 760 mmHg 60%
    09:00 +20°C° 0 mm 3 mps 760 mmHg 52%
    10:00 +22°C° 0 mm 3 mps 760 mmHg 45%
    11:00 +24°C° 0 mm 3 mps 760 mmHg 37%
    12:00 +25°C° 0 mm 3 mps 760 mmHg 35%
    13:00 +26°C° 0 mm 3 mps 759 mmHg 33%
    14:00 +26°C° 0 mm 4 mps 759 mmHg 31%
    15:00 +26°C° 0 mm 5 mps 758 mmHg 34%
    16:00 +24°C° 0 mm 6 mps 758 mmHg 36%
    17:00 +23°C° 0 mm 7 mps 758 mmHg 39%
    18:00 +22°C° 0 mm 6 mps 758 mmHg 42%
    19:00 +21°C° 0 mm 6 mps 758 mmHg 45%
    20:00 +20°C° 0 mm 6 mps 758 mmHg 49%
    21:00 +19°C° 0 mm 5 mps 758 mmHg 52%
    22:00 +17°C° 0 mm 5 mps 758 mmHg 55%
    23:00 +18°C° 0 mm 4 mps 758 mmHg 59%

    Day after tomorrow, 24 March, Sunday

    Time Temperature Precipitation Wind Pressure Humidity
    00:00 +17°C° 0 mm 4 mps 757 mmHg 62%
    01:00 +17°C° 0 mm 4 mps 757 mmHg 66%
    02:00 +15°C° 0 mm 4 mps 756 mmHg 70%
    03:00 +15°C° 0 mm 4 mps 756 mmHg 71%
    04:00 +15°C° 0 mm 4 mps 756 mmHg 73%
    05:00 +15°C° 0 mm 4 mps 756 mmHg 74%
    06:00 +17°C° 0 mm 3 mps 756 mmHg 69%
    07:00 +18°C° 0 mm 3 mps 757 mmHg 65%
    08:00 +19°C° 0 mm 2 mps 757 mmHg 60%
    09:00 +20°C° 0 mm 3 mps 757 mmHg 53%
    10:00 +21°C° 0 mm 4 mps 757 mmHg 46%
    11:00 +23°C° 0 mm 4 mps 757 mmHg 39%
    12:00 +22°C° 0 mm 5 mps 756 mmHg 41%
    13:00 +22°C° 0 mm 6 mps 756 mmHg 44%
    14:00 +22°C° 0 mm 6 mps 755 mmHg 46%
    15:00 +21°C° 0 mm 6 mps 755 mmHg 51%
    16:00 +20°C° 0 mm 6 mps 755 mmHg 57%
    17:00 +19°C° 0 mm 5 mps 755 mmHg 63%
    18:00 +17°C° 0 mm 5 mps 755 mmHg 68%
    19:00 +17°C° 0 mm 5 mps 756 mmHg 73%
    20:00 +17°C° 0 mm 4 mps 756 mmHg 79%
    21:00 +17°C° 0 mm 4 mps 756 mmHg 79%
    22:00 +17°C° 0 mm 4 mps 756 mmHg 80%
    23:00 +15°C° 0 mm 5 mps 756 mmHg 81%

    25 March, Monday

    Time Temperature Precipitation Wind Pressure Humidity
    00:00 +15°C° 0 mm 4 mps 756 mmHg 82%
    01:00 +15°C° 0 mm 4 mps 756 mmHg 84%
    02:00 +15°C° 0 mm 4 mps 756 mmHg 86%
    03:00 +15°C° 0 mm 4 mps 756 mmHg 82%
    04:00 +15°C° 0 mm 4 mps 756 mmHg 78%
    05:00 +14°C° 0 mm 4 mps 756 mmHg 75%
    06:00 +15°C° 0 mm 4 mps 756 mmHg 70%
    07:00 +17°C° 0 mm 4 mps 757 mmHg 66%
    08:00 +18°C° 0 mm 4 mps 757 mmHg 62%
    09:00 +19°C° 0 mm 4 mps 757 mmHg 54%
    10:00 +20°C° 0 mm 4 mps 757 mmHg 47%
    11:00 +21°C° 0 mm 4 mps 757 mmHg 39%
    12:00 +21°C° 0 mm 5 mps 757 mmHg 40%
    13:00 +21°C° 0 mm 5 mps 757 mmHg 40%
    14:00 +21°C° 0 mm 6 mps 757 mmHg 41%
    15:00 +20°C° 0 mm 6 mps 757 mmHg 42%
    16:00 +20°C° 0 mm 6 mps 757 mmHg 42%
    17:00 +19°C° 0 mm 6 mps 758 mmHg 43%
    18:00 +17°C° 0 mm 6 mps 758 mmHg 50%
    19:00 +16°C° 0 mm 6 mps 758 mmHg 57%
    20:00 +15°C° 0 mm 6 mps 759 mmHg 64%
    21:00 +15°C° 0 mm 6 mps 759 mmHg 64%
    22:00 +15°C° 0 mm 6 mps 759 mmHg 64%
    23:00 +15°C° 0 mm 6 mps 759 mmHg 65%

    26 March, Tuesday

    Time Temperature Precipitation Wind Pressure Humidity
    00:00 +15°C° 0 mm 6 mps 759 mmHg 63%
    01:00 +15°C° 0 mm 6 mps 759 mmHg 62%
    02:00 +15°C° 0 mm 6 mps 759 mmHg 61%
    03:00 +15°C° 0 mm 6 mps 758 mmHg 61%
    04:00 +15°C° 0 mm 6 mps 758 mmHg 61%
    05:00 +15°C° 0 mm 6 mps 758 mmHg 61%
    06:00 +16°C° 0 mm 6 mps 759 mmHg 60%
    07:00 +16°C° 0 mm 6 mps 759 mmHg 60%
    08:00 +16°C° 0 mm 6 mps 759 mmHg 59%
    09:00 +16°C° 0 mm 6 mps 759 mmHg 58%
    10:00 +17°C° 0 mm 6 mps 759 mmHg 57%
    11:00 +17°C° 0 mm 6 mps 759 mmHg 56%
    12:00 +19°C° 0 mm 5 mps 759 mmHg 53%
    13:00 +19°C° 0 mm 5 mps 759 mmHg 51%
    14:00 +20°C° 0 mm 5 mps 759 mmHg 49%
    15:00 +20°C° 0 mm 5 mps 759 mmHg 50%
    16:00 +19°C° 0 mm 5 mps 759 mmHg 52%
    17:00 +19°C° 0 mm 5 mps 759 mmHg 53%
    18:00 +17°C° 0 mm 5 mps 759 mmHg 59%
    19:00 +17°C° 0 mm 4 mps 759 mmHg 65%
    20:00 +15°C° 0 mm 4 mps 760 mmHg 71%
    21:00 +15°C° 0 mm 4 mps 760 mmHg 74%
    22:00 +15°C° 0 mm 4 mps 760 mmHg 77%
    23:00 +15°C° 0 mm 5 mps 760 mmHg 80%

    27 March, Wednesday

    Time Temperature Precipitation Wind Pressure Humidity
    00:00 +15°C° 0 mm 5 mps 760 mmHg 80%
    01:00 +15°C° 0 mm 5 mps 760 mmHg 80%
    02:00 +15°C° 0 mm 6 mps 760 mmHg 80%
    03:00 +15°C° 0 mm 5 mps 760 mmHg 80%
    04:00 +14°C° 0 mm 5 mps 760 mmHg 81%
    05:00 +14°C° 0 mm 5 mps 760 mmHg 82%
    06:00 +15°C° 0 mm 6 mps 760 mmHg 77%
    07:00 +16°C° 0 mm 6 mps 761 mmHg 71%
    08:00 +17°C° 0 mm 6 mps 761 mmHg 66%
    09:00 +19°C° 0 mm 6 mps 761 mmHg 60%
    10:00 +20°C° 0 mm 7 mps 761 mmHg 54%
    11:00 +21°C° 0 mm 7 mps 761 mmHg 48%
    12:00 +21°C° 0 mm 7 mps 761 mmHg 46%
    13:00 +21°C° 0 mm 7 mps 760 mmHg 44%
    14:00 +21°C° 0 mm 7 mps 760 mmHg 42%
    15:00 +21°C° 0 mm 7 mps 760 mmHg 46%
    16:00 +20°C° 0 mm 6 mps 760 mmHg 49%
    17:00 +20°C° 0 mm 5 mps 760 mmHg 53%
    18:00 +19°C° 0 mm 5 mps 760 mmHg 58%
    19:00 +17°C° 0 mm 5 mps 760 mmHg 63%
    20:00 +16°C° 0 mm 5 mps 760 mmHg 68%
    21:00 +15°C° 0.1 mm 6 mps 760 mmHg 67%
    22:00 +15°C° 0.1 mm 7 mps 760 mmHg 66%
    23:00 +15°C° 0.1 mm 8 mps 760 mmHg 65%
    Show more